Simultaneous Nadir Overpasses (SNOs) Predictions

Prediction of SNOs between GOES-15 and TERRA Satellite Orbit:

Table of predicted SNOs for the next 14.0 days since TLE Epoch: 1/13/2024
Index Date Time (GOES-15) GOES-15 Lat,Lon TERRA Lat,Lon Distance(km) Time Diff (sec)
1 01/13/2024 17:46:55 0.02, 61.55 0.08, 61.89 37.87 80
2 01/15/2024 17:30:03 0.02, 61.59 0.96, 65.95 496.48 80
3 01/16/2024 05:50:05 -0.01, 61.59 0.09, 61.09 57.10 80
4 01/18/2024 05:35:52 -0.01, 61.63 -0.77, 65.16 401.90 80
5 01/18/2024 17:56:04 0.01, 61.64 -0.27, 60.25 157.26 80
6 01/20/2024 17:36:30 0.02, 61.69 0.56, 64.33 300.62 80
7 01/21/2024 05:56:31 -0.01, 61.70 0.47, 59.47 254.83 80
8 01/23/2024 05:42:17 -0.02, 61.75 -0.39, 63.54 203.27 80
9 01/23/2024 18:02:29 0.01, 61.75 -0.64, 58.63 354.50 80
10 01/25/2024 17:42:54 0.02, 61.81 0.19, 62.72 103.14 80
11 01/26/2024 06:02:56 -0.01, 61.84 0.82, 57.85 453.92 80
